Weather in Viborg

Denmark     56°27′17″N   9°23′07″E
temp.,
°C
wind,
m/s
gust,
m/s
humid.,
%
clouds,
%
prec.,
mm/h
press.,
hPa
HPBL,
m
17 october, sun
sun1723:00+8wsw4874100 0.1 1014318
02:00+7wsw3777100 0.1 1014179
05:00+6wsw3978100 0.0 1014173
08:00+7wsw498699 0.0 1014182
11:00+11w587367 0.1 1015927
14:00+12w6762100 0.2 10151342
17:00+10w4773100 0.0 1015410
20:00+9wsw2482100 0.1 1016124
18 october, mon
mon1823:00+9sw2284100 0.0 101731
02:00+9sw0084100 0.1 101813
05:00+9ene2285100 0.0 101842
08:00+9e2386100 0.0 101981
11:00+10e3481100 0.0 1021302
14:00+11ese4472100 0.0 1021679
17:00+10ese4778100 0.0 1021481
20:00+9ese5975100 0.0 1021366
19 october, tue
tue1923:00+10se51184100 0.0 1020467
02:00+10se61196100 0.2 1019444
05:00+10sse51096100 0.0 1017317
08:00+10sse51084100 0.0 1016333
11:00+11sse51187100 0.1 1015457
14:00+11s51192100 0.1 1013474
17:00+12s61295100 0.0 1011452
20:00+13ssw51198100 0.5 1009469
20 october, wed
wed2023:00+13s61298100 3.3 1006520
02:00+14ssw71497100 5.3 1002759
05:00+15sw71496100 0.1 1000557
08:00+15ssw91791100 0.1 997847
11:00+16ssw112380100 0.0 9941447
14:00+15sw122291100 1.0 9901415
17:00+15sw111985100 0.8 9891192
20:00+13sw10178316 1.0 987919
21 october, thu
thu2123:00+12sw10178849 1.3 987917
02:00+11sw9168545 1.4 9851021
05:00+11sw8148896 0.6 983919
08:00+10wnw91585100 1.9 9861277
11:00+11w111778100 0.3 9891224
14:00+12w10167411 0.3 9921430
17:00+11wnw6107686 0.1 993990
20:00+9wnw4873100 0.1 994480